GW0306 Weather Reports


time (UTC)temp
F
wind
direction
speed
knots
gust
knots
rain 1hr
in
rain 24hr
in
rain mn
in
humidity
%
barometer
mb
20260506001738 69 23 0.9 3.5 0.00 0.00 0.00 86 1013.0
20260506001228 70 68 1.7 3.5 0.00 0.00 0.00 86 1013.0
20260506000718 70 45 0.9 3.5 0.00 0.00 0.00 86 1012.8
20260506000208 70 158 0.9 3.5 0.00 0.00 0.00 85 1012.6
20260505235658 70 68 0.9 5.2 0.00 0.00 0.00 85 1012.7
20260505235148 70 68 1.7 5.2 0.00 0.00 0.00 85 1012.9
20260505234638 70 90 0.9 5.2 0.00 0.00 0.00 85 1012.7
20260505234127 70 90 0.9 5.2 0.00 0.00 0.00 85 1012.9
20260505233617 70 23 2.6 5.2 0.00 0.00 0.00 85 1012.7
20260505233107 70 135 2.6 5.2 0.00 0.00 0.00 85 1012.7
20260505232557 70 90 1.7 3.5 0.00 0.00 0.00 86 1012.8
20260505232047 70 68 1.7 3.5 0.00 0.00 0.00 86 1012.6
20260505231026 70 135 1.7 3.5 0.00 0.00 0.00 86 1012.6
20260505230517 70 90 0.9 3.5 0.00 0.00 0.00 85 1012.5
20260505230007 70 68 0.9 3.5 0.00 0.00 0.00 85 1012.6
20260505225457 71 135 1.7 3.5 0.00 0.00 0.00 85 1012.7
20260505224947 71 158 1.7 3.5 0.00 0.00 0.00 84 1012.5
20260505224436 71 90 2.6 3.5 0.00 0.00 0.00 84 1012.5
20260505223926 71 113 0.9 3.5 0.00 0.00 0.00 84 1012.6
20260505223416 71 135 1.7 3.5 0.00 0.00 0.00 85 1012.7
20260505222905 71 113 0.9 1.7 0.00 0.00 0.00 84 1013.0
20260505222356 71 270 0.9 3.5 0.00 0.00 0.00 84 1012.9
20260505221845 71 135 0.0 3.5 0.00 0.00 0.00 84 1012.6
20260505221335 71 68 1.7 3.5 0.00 0.00 0.00 84 1012.6
20260505220825 71 113 0.9 3.5 0.00 0.00 0.00 84 1012.4
20260505220315 71 180 0.0 3.5 0.00 0.00 0.00 84 1012.4
20260505215805 71 135 0.9 3.5 0.00 0.00 0.00 84 1012.3
20260505215255 72 68 1.7 1.7 0.00 0.00 0.00 84 1012.5
20260505214745 72 113 0.9 1.7 0.00 0.00 0.00 84 1012.3
20260505214235 72 113 0.0 1.7 0.00 0.00 0.00 84 1012.2
20260505213724 72 135 1.7 3.5 0.00 0.00 0.00 84 1012.3
20260505213214 72 113 1.7 3.5 0.00 0.00 0.00 83 1012.3
20260505212155 72 113 0.0 3.5 0.00 0.00 0.00 83 1012.1
20260505211135 72 135 0.9 1.7 0.00 0.00 0.00 82 1012.0
20260505210624 72 158 0.9 3.5 0.00 0.00 0.00 82 1012.2
20260505205604 72 135 0.9 3.5 0.00 0.00 0.00 82 1012.0
20260505205053 73 135 0.9 3.5 0.00 0.00 0.00 82 1012.1
20260505204034 73 135 1.7 3.5 0.00 0.00 0.00 82 1012.2
20260505203524 73 90 2.6 3.5 0.00 0.00 0.00 81 1012.0
20260505203014 73 135 0.0 3.5 0.00 0.00 0.00 81 1012.0
20260505202503 73 135 0.0 5.2 0.00 0.00 0.00 81 1012.0
20260505201953 73 68 2.6 5.2 0.00 0.00 0.00 80 1011.7
20260505201443 73 180 1.7 5.2 0.00 0.00 0.00 80 1012.0
20260505200933 74 158 1.7 3.5 0.00 0.00 0.00 80 1011.8
20260505200422 74 113 1.7 6.1 0.00 0.00 0.00 81 1011.8
20260505195912 74 158 2.6 6.1 0.00 0.00 0.00 80 1012.0
20260505195402 74 113 1.7 3.5 0.00 0.00 0.00 81 1012.0
20260505194852 74 68 0.9 3.5 0.00 0.00 0.00 81 1012.2
20260505194342 74 113 1.7 3.5 0.00 0.00 0.00 80 1011.9
20260505193833 73 90 1.7 3.5 0.00 0.00 0.00 81 1012.4
20260505193322 73 23 0.9 3.5 0.00 0.00 0.00 80 1012.3
20260505192812 74 113 2.6 3.5 0.00 0.00 0.00 80 1012.1
20260505192305 74 113 1.7 3.5 0.00 0.00 0.00 79 1012.4
20260505191752 74 180 1.7 5.2 0.00 0.00 0.00 79 1012.4
20260505191243 74 45 1.7 5.2 0.00 0.00 0.00 79 1012.1
20260505190732 75 113 0.9 5.2 0.00 0.00 0.00 78 1012.2
20260505190222 74 135 2.6 5.2 0.00 0.00 0.00 79 1011.9
20260505185711 74 158 0.9 5.2 0.00 0.00 0.00 78 1011.8
20260505185201 74 113 1.7 5.2 0.00 0.00 0.00 78 1012.0
20260505184651 75 158 1.7 3.5 0.00 0.00 0.00 77 1012.0
20260505184141 75 45 1.7 3.5 0.00 0.00 0.00 78 1012.0
20260505183630 75 68 1.7 5.2 0.00 0.00 0.00 78 1012.0
20260505182610 75 113 1.7 3.5 0.00 0.00 0.00 77 1012.5
20260505182100 76 68 0.9 3.5 0.00 0.00 0.00 77 1012.3
20260505181550 75 68 0.9 3.5 0.00 0.00 0.00 77 1012.1
20260505180530 75 113 1.7 3.5 0.00 0.00 0.00 77 1012.4
20260505180020 76 45 0.9 3.5 0.00 0.00 0.00 75 1012.4
20260505175510 76 113 0.9 3.5 0.00 0.00 0.00 76 1012.4
20260505175000 76 90 1.7 3.5 0.00 0.00 0.00 76 1012.5
20260505174450 75 113 0.0 3.5 0.00 0.00 0.00 77 1012.5
20260505173940 75 90 0.0 3.5 0.00 0.00 0.00 77 1012.6
20260505173430 75 45 0.9 3.5 0.00 0.00 0.00 77 1012.8
20260505172919 75 90 0.9 3.5 0.00 0.00 0.00 76 1012.9
20260505172409 75 90 0.9 3.5 0.00 0.00 0.00 77 1012.6
20260505171859 74 0 1.7 1.7 0.00 0.00 0.00 78 1012.9
20260505171349 74 68 1.7 3.5 0.00 0.00 0.00 77 1013.0
20260505170329 74 315 1.7 3.5 0.00 0.00 0.00 77 1013.2
20260505165818 75 68 0.9 3.5 0.00 0.00 0.00 76 1013.1
20260505165308 76 0 1.7 3.5 0.00 0.00 0.00 75 1013.0
20260505164758 76 225 0.9 3.5 0.00 0.00 0.00 75 1013.0
20260505164248 75 23 1.7 3.5 0.00 0.00 0.00 75 1012.9
20260505163738 76 338 0.9 3.5 0.00 0.00 0.00 75 1013.2
20260505163228 77 23 1.7 3.5 0.00 0.00 0.00 75 1013.1
20260505162718 74 338 1.7 5.2 0.00 0.00 0.00 78 1013.4
20260505162207 74 0 2.6 5.2 0.00 0.00 0.00 77 1013.2
20260505161658 76 68 1.7 5.2 0.00 0.00 0.00 76 1013.2
20260505161148 74 23 1.7 5.2 0.00 0.00 0.00 78 1013.0
20260505160638 74 45 2.6 6.1 0.00 0.00 0.00 77 1013.2
20260505160127 74 338 1.7 7.0 0.00 0.00 0.00 77 1013.3
20260505153035 75 23 1.7 5.2 0.00 0.00 0.00 76 1013.3
20260505152516 75 23 1.7 6.1 0.00 0.00 0.00 76 1013.5
20260505152007 74 45 1.7 6.1 0.00 0.00 0.00 77 1013.5
20260505151457 74 23 3.5 5.2 0.00 0.00 0.00 77 1013.5
20260505150436 74 90 0.9 3.5 0.00 0.00 0.00 76 1013.6
20260505140235 64 45 1.7 1.7 0.00 0.00 0.00 87 1014.2
20260505125013 60 0 0.0 1.7 0.00 0.00 0.00 87 1014.0
20260505124502 60 23 0.9 1.7 0.00 0.00 0.00 88 1014.1
20260505123953 59 113 0.0 1.7 0.00 0.00 0.00 88 1014.0
20260505123443 59 90 0.0 1.7 0.00 0.00 0.00 88 1014.1
20260505122933 59 113 0.9 1.7 0.00 0.00 0.00 88 1013.7
20260505122423 59 113 0.0 1.7 0.00 0.00 0.00 88 1013.9
20260505121913 58 68 0.9 1.7 0.00 0.00 0.00 88 1013.7
20260505121402 58 23 0.9 1.7 0.00 0.00 0.00 88 1013.8
20260505120852 58 180 0.0 7.0 0.00 0.00 0.00 88 1013.4
20260505120342 58 158 0.9 7.0 0.00 0.00 0.00 88 1013.5
20260505115832 58 0 1.7 3.5 0.00 0.00 0.00 88 1013.5
20260505114813 57 180 0.0 1.7 0.00 0.00 0.00 89 1013.3
20260505114302 57 135 0.9 1.7 0.00 0.00 0.00 89 1013.0
20260505113752 57 113 0.9 1.7 0.00 0.00 0.00 89 1013.3
20260505113242 57 113 0.0 1.7 0.00 0.00 0.00 89 1013.2
20260505112731 57 113 0.0 1.7 0.00 0.00 0.00 89 1013.2
20260505112222 57 68 0.0 1.7 0.00 0.00 0.00 89 1013.3
20260505111201 56 113 0.0 3.5 0.00 0.00 0.00 89 1013.1
20260505110141 56 45 0.9 1.7 0.00 0.00 0.00 89 1013.2
20260505100959 56 68 0.0 0.0 0.00 0.00 0.00 89 1012.9
20260505100449 56 68 0.0 0.0 0.00 0.00 0.00 89 1012.5
20260505095939 56 68 0.0 0.0 0.00 0.00 0.00 89 1012.6
20260505095429 55 68 0.0 0.0 0.00 0.00 0.00 89 1012.6
20260505094919 55 68 0.0 0.0 0.00 0.00 0.00 89 1012.8
20260505094409 55 68 0.0 0.0 0.00 0.00 0.00 89 1012.6
20260505093859 55 68 0.0 0.0 0.00 0.00 0.00 89 1012.3
20260505092839 55 45 0.0 0.0 0.00 0.00 0.00 89 1012.5
20260505092329 55 90 0.0 0.0 0.00 0.00 0.00 89 1012.3
20260505091818 55 68 0.0 0.0 0.00 0.00 0.00 89 1012.2
20260505090758 55 68 0.0 0.0 0.00 0.00 0.00 90 1012.3
20260505090248 55 68 0.0 0.0 0.00 0.00 0.00 90 1012.2
20260505085738 54 90 0.0 0.0 0.00 0.00 0.00 90 1012.2
20260505085228 54 113 0.0 0.0 0.00 0.00 0.00 90 1012.2
20260505084718 54 113 0.0 0.0 0.00 0.00 0.00 90 1012.1
20260505084208 54 90 0.0 0.0 0.00 0.00 0.00 90 1012.0
20260505083658 54 90 0.0 0.0 0.00 0.00 0.00 90 1012.0
20260505083148 54 90 0.0 0.0 0.00 0.00 0.00 90 1012.1
20260505082638 53 90 0.0 0.0 0.00 0.00 0.00 90 1012.2
20260505082127 53 68 0.0 0.0 0.00 0.00 0.00 90 1012.1
20260505081617 53 68 0.0 0.0 0.00 0.00 0.00 90 1012.4
20260505081107 53 68 0.0 0.0 0.00 0.00 0.00 90 1012.3
20260505080555 53 68 0.0 0.0 0.00 0.00 0.00 90 1012.4
20260505075538 52 90 0.0 0.0 0.00 0.00 0.00 90 1012.2
20260505075028 52 90 0.0 0.0 0.00 0.00 0.00 90 1012.2
20260505074517 52 68 0.0 0.0 0.00 0.00 0.00 90 1012.1
20260505074007 52 68 0.0 0.0 0.00 0.00 0.00 90 1011.9
20260505072947 52 68 0.0 0.0 0.00 0.00 0.00 90 1011.7
20260505072437 52 68 0.0 0.0 0.00 0.00 0.00 90 1012.0
20260505071928 52 68 0.0 0.0 0.00 0.00 0.00 90 1011.7
20260505071417 52 68 0.0 0.0 0.00 0.00 0.00 90 1011.7
20260505070907 52 68 0.0 0.0 0.00 0.00 0.00 90 1011.5
20260505070356 52 68 0.0 0.0 0.00 0.00 0.00 90 1011.6
20260505065846 52 68 0.0 0.0 0.00 0.00 0.00 90 1011.7
20260505065336 52 68 0.0 0.0 0.00 0.00 0.00 90 1011.5
20260505064827 52 68 0.0 0.0 0.00 0.00 0.00 90 1011.7
20260505063806 52 90 0.0 0.0 0.00 0.00 0.00 90 1011.6
20260505063256 52 90 0.0 0.0 0.00 0.00 0.00 90 1011.9
20260505062222 52 90 0.0 0.0 0.00 0.00 0.00 90 1011.7
20260505061712 52 90 0.0 0.0 0.00 0.00 0.00 90 1011.9
20260505061201 52 90 0.0 0.0 0.00 0.00 0.00 90 1011.9
20260505060651 52 90 0.0 0.0 0.00 0.00 0.00 90 1012.0
20260505060141 52 90 0.0 0.0 0.00 0.00 0.00 90 1011.8
20260505055631 52 90 0.0 0.0 0.00 0.00 0.00 90 1011.9
20260505055121 52 90 0.0 0.0 0.00 0.00 0.00 90 1012.1
20260505054611 52 90 0.0 0.0 0.00 0.00 0.00 90 1012.1
20260505054100 52 90 0.0 0.0 0.00 0.00 0.00 90 1012.1
20260505053551 52 90 0.0 0.0 0.00 0.00 0.00 90 1012.1
20260505053040 52 90 0.0 0.0 0.00 0.00 0.00 90 1012.1
20260505052530 52 90 0.0 0.0 0.00 0.00 0.00 90 1012.2
20260505052020 52 90 0.0 0.0 0.00 0.00 0.00 89 1012.5
20260505051520 52 90 0.0 0.0 0.00 0.00 0.00 89 1012.3
20260505051000 52 90 0.0 0.0 0.00 0.00 0.00 89 1012.5
20260505050450 52 90 0.0 0.0 0.00 0.00 0.00 89 1012.3
20260505041309 53 68 0.0 0.0 0.00 0.00 0.00 88 1012.3
20260505040759 52 68 0.0 0.0 0.00 0.00 0.00 88 1012.2
20260505040249 52 68 0.0 0.0 0.00 0.00 0.00 88 1012.2
20260505035228 52 68 0.0 0.0 0.00 0.00 0.00 88 1012.3
20260505034718 52 68 0.0 0.0 0.00 0.00 0.00 88 1012.0
20260505034208 52 68 0.0 0.0 0.00 0.00 0.00 87 1012.3
20260505033658 53 68 0.0 0.0 0.00 0.00 0.00 87 1012.3
20260505032128 53 68 0.0 0.0 0.00 0.00 0.00 87 1012.2
20260505031618 53 68 0.0 0.0 0.00 0.00 0.00 87 1012.2
20260505031107 53 68 0.0 0.0 0.00 0.00 0.00 86 1012.3
20260505030557 53 68 0.0 0.0 0.00 0.00 0.00 86 1012.1
20260505025537 54 45 0.0 0.0 0.00 0.00 0.00 86 1012.0
20260505025027 54 68 0.0 0.0 0.00 0.00 0.00 86 1012.0
20260505024517 54 68 0.0 0.0 0.00 0.00 0.00 86 1012.1
20260505024007 53 68 0.0 0.0 0.00 0.00 0.00 85 1012.2
20260505023457 54 68 0.0 0.0 0.00 0.00 0.00 85 1012.1
20260505022947 54 68 0.0 0.0 0.00 0.00 0.00 85 1012.2
20260505022436 54 68 0.0 0.0 0.00 0.00 0.00 84 1012.3
20260505021927 54 68 0.0 0.0 0.00 0.00 0.00 84 1012.3
20260505021417 54 68 0.0 0.0 0.00 0.00 0.00 84 1012.3
20260505020907 54 68 0.0 0.0 0.00 0.00 0.00 83 1012.1
20260505020357 55 68 0.0 0.0 0.00 0.00 0.00 83 1012.4
20260505015336 55 68 0.0 0.0 0.00 0.00 0.00 83 1012.2
20260505014826 55 68 0.0 0.0 0.00 0.00 0.00 83 1012.2
20260505013805 54 68 0.0 0.0 0.00 0.00 0.00 83 1012.0
20260505013256 55 68 0.0 0.0 0.00 0.00 0.00 83 1012.0
20260505012746 55 45 0.0 0.0 0.00 0.00 0.00 82 1012.0
20260505011725 55 45 0.0 0.0 0.00 0.00 0.00 83 1011.9
20260505011215 55 45 0.0 0.0 0.00 0.00 0.00 82 1011.8
20260505010155 55 68 0.0 0.0 0.00 0.00 0.00 82 1011.4
20260505005645 56 68 0.0 0.0 0.00 0.00 0.00 82 1011.3
20260505005135 56 90 0.0 0.0 0.00 0.00 0.00 82 1011.4
20260505004625 55 90 0.0 0.0 0.00 0.00 0.00 81 1011.5
20260505004114 56 90 0.0 0.0 0.00 0.00 0.00 81 1011.5
20260505003604 56 90 0.0 0.0 0.00 0.00 0.00 81 1011.2
20260505003054 56 90 0.0 0.0 0.00 0.00 0.00 81 1011.4
20260505002543 55 68 0.0 0.0 0.00 0.00 0.00 81 1011.3